Location: West Cummington
(42.4920°N, 72.9680°W)
Time: 00:32:19
(UTC-04:00)

Daily predictions for brighter satellites

Satellite Brightness Start Highest point End
(mag) Time Altitude Azimuth Time Altitude Azimuth Time Altitude Azimuth
SL-16 R/B 3.6 00:11:47 33° NW 00:11:47 33° NW 00:16:18 10° N
Cosmos 1844 Rocket 4.2 00:24:25 10° NNW 00:27:35 33° N 00:27:35 33° N
Cosmos 2360 Rocket 3.6 00:32:37 34° N 00:32:37 34° N 00:35:57 10° NNE
CZ-2C R/B 4.4 00:31:39 10° NNE 00:34:11 27° NE 00:34:11 27° NE
ATLAS 3B R/B 4.1 00:53:16 31° ENE 00:53:16 31° ENE 00:57:33 10° NE
Cosmos 2219 Rocket 4.0 00:55:54 25° NE 00:55:54 25° NE 00:58:14 10° NNE
Cosmos 2333 Rocket 4.0 01:03:46 26° NE 01:03:46 26° NE 01:06:21 10° NE
Cosmos 2237 Rocket 4.0 01:10:34 26° NE 01:10:34 26° NE 01:13:07 10° NE
COSMOS 2428 4.1 01:19:05 34° N 01:19:05 34° N 01:22:32 10° NNE
Lacrosse 4 Rocket 4.3 01:35:58 16° N 01:35:58 16° N 01:37:13 10° N
Cosmos 2278 Rocket 3.8 01:35:55 10° NNW 01:38:34 29° NNW 01:38:34 29° NNW
COSMOS 2455 3.6 02:11:16 47° NNW 02:11:16 47° NNW 02:15:54 10° NNE
CZ-2D R/B 4.3 02:21:41 10° NE 02:24:43 15° E 02:25:32 15° E
CZ-4C R/B 3.0 02:28:47 45° ENE 02:28:47 45° ENE 02:33:09 10° NE
Cosmos 2219 Rocket 3.8 02:37:37 23° NW 02:37:37 23° NW 02:41:33 10° N
NPP 4.2 02:33:16 10° NNE 02:37:35 56° NE 02:37:35 56° NE
ATLAS 3B R/B 3.3 02:40:30 50° WNW 02:41:19 52° NW 02:48:34 10° NNE
Cosmos 2333 Rocket 3.7 02:45:46 27° NW 02:45:46 27° NW 02:50:14 10° N
SL-16 R/B 2.7 02:46:25 54° NNW 02:46:25 54° NNW 02:51:06 10° NNE
Cosmos 1048 Rocket 4.5 02:51:12 60° NE 02:51:12 60° NE 02:55:40 10° NNE
Cosmos 2237 Rocket 3.6 02:52:23 27° NW 02:52:23 27° NW 02:56:48 10° N
SL-16 R/B 3.5 02:49:18 24° SE 02:52:34 44° ENE 02:58:23 10° N
ADEOS 4.0 02:51:22 10° NNE 02:56:07 56° E 02:56:07 56° E
S3M 4.0 02:57:10 69° ESE 02:57:33 71° E 03:03:50 10° NNE
Cosmos 1867 3.9 02:58:54 62° N 02:58:54 62° N 03:03:38 10° NNE
Cosmos 1269 Rocket 4.4 03:07:21 57° NNW 03:07:21 57° NNW 03:11:50 10° NNE
Resurs 1-4 Rocket 3.1 03:01:42 10° NNE 03:06:34 37° E 03:07:28 34° ESE
IRAS Rocket 4.2 03:01:30 10° NNE 03:07:09 74° ESE 03:07:13 74° ESE
ARIANE 5 R/B 3.1 03:05:07 10° NNE 03:10:13 51° E 03:10:37 49° ESE
Cosmos 1869 Rocket 4.2 03:12:47 10° N 03:16:34 55° NE 03:16:34 55° NE
UNK 4.3 03:17:02 51° E 03:17:30 53° ENE 03:22:00 10° N
Cosmos 1553 Rocket 3.8 03:18:01 75° SW 03:18:27 80° W 03:24:37 10° N
ERS-2 3.7 03:15:57 10° NNE 03:18:17 36° NNE 03:18:17 36° NNE
Cosmos 1745 Rocket 3.9 03:15:12 10° N 03:21:36 85° W 03:22:44 63° S
UNKNOWN OBJECT B 4.5 03:20:32 10° NE 03:23:37 27° E 03:23:37 27° E
Cosmos 1603 3.6 03:27:28 73° W 03:27:47 75° WNW 03:33:32 10° NNE
USA 234 3.1 03:21:49 10° NE 03:28:25 89° SSE 03:29:55 57° SW
ATLAS 5 CENTAUR R/B 3.7 03:27:55 19° SE 03:29:11 21° ESE 03:32:57 10° ENE
USA 238 DEB 4.2 03:28:04 42° W 03:29:44 50° NW 03:36:35 10° NNE
USA 238 4.2 03:28:10 43° W 03:29:50 50° NW 03:36:41 10° NNE
Cosmos 1356 Rocket 3.9 03:30:03 10° N 03:33:17 53° NNE 03:33:17 53° NNE
SL-08 R/B 4.4 03:28:22 10° NNW 03:34:21 58° W 03:34:33 57° W
Meteor 2-3 Rocket 3.8 03:29:25 10° N 03:35:13 77° E 03:37:45 35° SSE
ERBS 4.0 03:36:28 31° N 03:36:28 31° N 03:38:45 10° NE
SeaSat 1 3.5 03:30:59 10° SE 03:35:38 44° ENE 03:40:20 10° NNW
In-Cosmos 22 Rocket 3.9 03:30:30 10° N 03:35:50 90° ENE 03:36:47 62° S
ATLAS CENTAUR R/B 2.1 03:35:34 10° NNW 03:39:53 52° NE 03:43:49 10° SE
Cosmos 158 Rocket 3.9 03:41:36 65° W 03:41:45 66° WNW 03:46:46 10° NNE
Cosmos 2251 Rocket 3.5 03:41:12 63° S 03:42:02 80° ESE 03:47:19 10° NNE
NOSS 3-2 (A) 3.4 03:44:53 53° SW 03:46:25 77° NW 03:53:08 10° NE
Cosmos 1892 3.5 03:43:42 10° N 03:47:28 50° E 03:48:19 41° ESE
Cosmos 1110 Rocket 3.8 03:42:55 10° NNW 03:48:08 81° WSW 03:49:49 44° S
NOSS 3-3 (A) 4.3 03:47:42 10° NW 03:55:09 73° WSW 04:03:03 10° SSE
NOSS 3-3 (C) 4.3 03:47:48 10° NW 03:55:16 74° WSW 04:03:09 10° SSE
Cosmos 1733 Rocket 4.1 03:53:19 10° N 03:57:32 45° ENE 04:01:45 10° SSE
Meteor 2-10 4.3 03:55:25 33° S 03:57:57 74° E 04:03:25 10° NNE
Cosmos 1707 Rocket 3.7 03:59:34 54° WNW 03:59:34 54° WNW 04:03:57 10° N
Cosmos 1943 3.1 03:57:59 45° SSW 03:59:50 88° ESE 04:05:31 10° NNE
NOSS 3-2 (C) 3.5 03:59:50 43° SW 04:01:59 75° NW 04:08:42 10° NNE
CZ-2D R/B 2.0 04:00:03 10° N 04:05:18 68° WNW 04:06:51 45° SW
Cosmos 883 Rocket 4.4 04:04:59 38° SSW 04:07:19 66° W 04:13:26 10° N
Cosmos 1300 4.2 04:08:26 24° NW 04:08:26 24° NW 04:10:47 10° NNW
CENTAUR R/B 3.7 04:04:39 15° S 04:09:00 35° ESE 04:15:00 10° NE
Cosmos 1726 3.5 04:09:57 27° NW 04:09:57 27° NW 04:12:24 10° NNW
Cosmos 2369 Rocket 2.0 04:05:25 10° NNW 04:11:00 70° WSW 04:16:35 10° SSE
Cosmos 839 Rocket 4.3 04:03:15 10° NW 04:11:20 62° WSW 04:17:50 10° SSE
CZ-4B R/B 4.1 04:08:08 10° NNE 04:13:12 44° E 04:18:13 10° S
Cosmos 2315 Rocket 3.9 04:10:59 27° SSW 04:14:37 81° W 04:20:56 10° N
CZ-4C R/B 3.5 04:13:58 22° WNW 04:16:18 29° NW 04:21:36 10° NNE
Okean O Rocket 2.1 04:12:53 10° NNE 04:17:18 58° E 04:20:19 20° S
Cosmos 1455 2.1 04:19:25 42° S 04:20:41 89° W 04:24:36 10° N
ARGOS Delta rocket 3.6 04:19:53 10° NNE 04:24:20 87° E 04:26:51 25° S
SL-16 R/B 4.3 04:28:33 10° WNW 04:30:44 12° NW 04:32:56 10° NNW
MTI 4.0 04:31:15 47° W 04:31:16 47° W 04:34:31 10° NNW
Cosmos 494 Rocket 4.3 04:29:15 32° WSW 04:31:24 51° WNW 04:36:33 10° N
Sich 1 Rocket 4.1 04:27:45 10° N 04:32:06 60° E 04:36:26 10° SSE
Abrixas rocket 4.0 04:30:26 17° NW 04:32:17 28° N 04:35:15 10° ENE
CZ-2C R/B 3.5 04:31:46 10° SSE 04:36:13 82° WSW 04:40:40 10° NNW
SL-16 R/B 3.2 04:34:25 26° SW 04:36:19 31° W 04:41:43 10° NW
PAYLOAD B 4.4 04:31:16 10° NNE 04:36:50 76° ESE 04:42:20 10° S
Cosmos 2292 Rocket 3.8 04:36:13 10° NNW 04:38:11 27° WNW 04:38:11 27° WNW
Cosmos 1302 Rocket 4.0 04:33:49 10° NNW 04:38:57 55° WSW 04:44:02 10° S
CZ-2D R/B 3.9 04:35:47 10° N 04:40:04 49° WNW 04:42:05 27° SW
Cosmos 2263 4.3 04:34:37 10° NNW 04:40:17 57° WSW 04:45:55 10° S
Cosmos 1943 Rocket 2.2 04:36:02 10° NNW 04:41:45 89° ENE 04:47:24 10° SSE
Cosmos 389 Rocket 2.4 04:39:51 22° S 04:41:58 84° E 04:45:29 10° NNE
Resurs 1-4 Rocket 3.1 04:41:47 10° N 04:46:16 29° WNW 04:48:33 21° WSW
MOZ.5/SAFIR/RUBIN 5/SL-8 3.7 04:42:12 10° S 04:46:46 60° W 04:51:23 10° NNW
ARIANE 5 R/B 4.0 04:45:01 10° NNW 04:48:58 22° WNW 04:50:57 18° W
Cosmos 1862 3.6 04:45:08 10° N 04:49:07 70° E 04:53:03 10° SSE
CZ-4B R/B 2.6 04:46:44 10° NNE 04:50:22 89° W 04:53:37 13° SSW
PSLV R/B 3.3 04:50:52 29° WSW 04:52:28 69° S 04:55:52 10° E
UNKNOWN OBJECT B 4.2 04:55:23 10° NNW 04:58:08 20° WNW 04:59:07 18° W
Cosmos 1825 2.1 04:56:06 10° N 04:59:55 87° E 05:03:42 10° S
Cosmos 1933 3.3 04:58:32 10° S 05:02:38 84° W 05:06:47 10° N
Cosmos 1869 3.9 05:00:56 19° SW 05:03:18 36° WNW 05:07:01 10° N
ADEOS II 2.8 04:59:25 10° NNE 05:04:37 57° E 05:09:46 10° S
Cosmos 1408 2.5 05:01:28 10° N 05:05:13 81° W 05:08:58 10° S
PSLV R/B 3.9 05:02:08 10° NNE 05:06:30 71° ESE 05:10:52 10° S
Cosmos 1184 Rocket 3.7 05:04:25 10° NNW 05:07:27 30° W 05:10:14 11° SSW
Geosat 4.1 05:02:41 10° NNE 05:07:45 82° ESE 05:12:46 10° SSW
Cosmos 1862 Rocket 4.2 05:05:10 16° SW 05:08:12 36° WNW 05:12:17 10° N
Nadezhda 1 Rocket 4.0 05:02:06 10° S 05:08:20 89° W 05:14:43 10° N
USA 234 4.2 05:05:06 10° NE 05:10:59 37° NNW 05:16:50 10° W
Okean 2 Rocket 3.6 05:08:33 10° N 05:13:02 65° E 05:17:30 10° SSE
SeaSat 1 3.4 05:09:14 10° SSW 05:13:18 26° WSW 05:17:23 10° NW
ATLAS 5 CENTAUR R/B 2.2 05:09:30 15° WSW 05:13:23 53° NW 05:18:34 10° NNE
NAVSTAR 52 R/B(PAM-D 4.4 05:15:55 18° SSW 05:16:21 20° S 05:17:41 10° ESE
Thor Agena Rocket 3.6 05:11:30 10° S 05:16:31 55° W 05:21:37 10° NNW
Atlas Centaur 2 4.3 05:15:51 10° SSE 05:17:15 11° SSE 05:18:42 10° SE
Cosmos 1656 Rocket 3.7 05:11:52 10° NNW 05:17:19 83° ENE 05:22:44 10° SSE
Pageos (A) 4.3 05:16:38 10° NW 05:18:20 20° W 05:19:06 17° WSW
ATLAS CENTAUR R/B 2.9 05:15:55 10° WNW 05:18:26 16° WSW 05:20:49 10° SW
BREEZE-M DEB (TANK) 1.9 05:20:13 10° WNW 05:22:22 53° SSW 05:25:17 10° SE
Cosmos 1174 4.4 05:18:05 10° SSW 05:23:45 83° ESE 05:28:13 10° NNE
Cosmos 1190 Rocket 4.4 05:19:30 10° S 05:24:38 67° ESE 05:29:48 10° NNE
CZ-3 R/B 4.4 04:51:42 10° W 05:26:41 34° SW 05:36:48 10° SSE
Okean 1-7 3.0 05:25:00 10° S 05:29:17 89° W 05:33:39 10° N
USA 32 4.1 05:24:20 10° SSW 05:29:28 58° W 05:34:40 10° N
Cosmos 2074 Rocket 4.4 05:24:16 10° NNW 05:30:04 42° W 05:35:51 10° SSW
Cosmos 2154 Rocket 4.1 05:23:52 10° N 05:30:14 86° W 05:36:35 10° S
Cosmos 2184 Rocket 4.4 05:25:50 10° NNW 05:31:49 43° W 05:37:45 10° SSW
COSMOS 2406 3.3 05:31:08 10° SW 05:36:51 65° WNW 05:42:37 10° NNE
Cosmos 1992 Rocket 4.1 05:31:50 10° NNW 05:36:56 54° WSW 05:42:00 10° S
SL-27 R/B 3.4 05:34:07 10° SW 05:37:28 33° WNW 05:40:48 10° N
Cosmos 1782 Rocket 3.8 05:36:58 10° NNW 05:41:11 49° W 05:45:21 10° SSW
Cosmos 2341 Rocket 4.1 05:41:59 10° N 05:48:17 80° W 05:54:36 10° S
